Find Starlink 38353

NORAD ID: 100559 Int'l Des: 2026-200 Owner: SPXS Country: US Constellation: starlink operational

当前视图

正在加载3D地球...

About Starlink 38353

Starlink 38353 (NORAD 100559) is a starlink constellation satellite launched Sep 2, 2026 by SPXS of US. with a mass of 575.00 kg.

即将过境

Passes for default location (London). Set your location on the main map for personalized predictions.

高度历史

Loading altitude history...

两行轨道根数

1 A0559U 26200AB 26255.26204373 .00206029 00000-0 97859-3 0 9996
2 A0559 69.9988 158.8419 0004172 264.7287 95.3439 15.82195416 1585
Epoch: Sep 12, 2026 • Age: 12 hours

当前状态

高度 341.8 km
远地点 / 近地点 N/A
速度 7.70 km/s
星下点 -54.91°S, 107.88°E
发射日期 Sep 2, 2026
运行时间 10 days
类型 internet

技术详情

分类 Payload
质量 575.00 kg
干质量 530.00 kg
总质量 575.00 kg
长度 0.30 m
直径 4.10 m
跨度 29.00 m
形状 Box + pan
制造商 SPXS
平台类型 Starlink V2MO
阶段状态 In Orbit
所有者/国家 SPXS/US

Most Searched